Parkersburg, WV

8:33 PM EDT on October 20, 2017 (GMT -0400)
Wood County Wilson

Weather History for KPKB - February, 2014

Change the Weather History Date:

Friday, February 21, 2014

  Actual Average Record
Temperature  
Mean Temperature 51 °F 36 °F  
Max Temperature 64 °F 46 °F 72 °F (1997)
Min Temperature 37 °F 27 °F -1 °F (1963)
Degree Days  
Heating Degree Days 14 29  
Month to date heating degree days 419 651  
Since 1 July heating degree days 3514 3596  
Cooling Degree Days 0 0  
Month to date cooling degree days 0 0  
Year to date cooling degree days 0 0  
Moisture  
Dew Point 36 °F    
Average Humidity 63    
Maximum Humidity 93    
Minimum Humidity 33    
Precipitation  
Precipitation 0.73 in 0.10 in 1.21 in (2011)
Month to date precipitation 1.45 2.00  
Year to date precipitation 3.71 4.95  
Sea Level Pressure  
Sea Level Pressure 29.81 in    
Wind  
Wind Speed 12 mph (WSW)    
Max Wind Speed 29 mph    
Max Gust Speed 38 mph    
Visibility 8 miles    
Events Rain    
T = Trace of Precipitation, MM = Missing Value Source: NWS Daily Summary

Daily Weather History Graph

Daily Weather History Graph

Search for Another Location

Airport or City:

Trip Planner

Search our weather history database for the weather conditions in past years. The results will help you decide how hot, cold, wet, or windy it might be!

Date:

Astronomy

Feb. 21, 2014 Rise Set
Actual Time 7:09 AM EST 6:09 PM EST
Civil Twilight 6:42 AM EST 6:36 PM EST
Nautical Twilight 6:11 AM EST 7:07 PM EST
Astronomical Twilight 5:40 AM EST 7:38 PM EST
Moon No Moon Rise 10:35 AM EST
Length of Visible Light 11h 53m
Length of Day
10h 59m
Waning Gibbous, 61% of the Moon is Illuminated
Feb 21
Waning Gibbous
Feb 22
Last Quarter
Mar 1
New
Mar 8
First Quarter
Mar 16
Full

Hourly Weather History & Observations

Time (EST) Temp. Windchill Dew Point Humidity Pressure Visibility Wind Dir Wind Speed Gust Speed Precip Events Conditions
12:53 AM 63.0 °F - 46.9 °F 56% 29.61 in 10.0 mi SSE 12.7 mph 21.9 mph N/A   Clear
1:53 AM 63.0 °F - 48.0 °F 58% 29.57 in 10.0 mi SSE 12.7 mph 25.3 mph N/A   Scattered Clouds
2:27 AM 60.1 °F - 50.0 °F 69% 29.66 in 4.0 mi West 19.6 mph 38.0 mph 0.05 in Rain Heavy Rain
2:53 AM 57.9 °F - 53.1 °F 84% 29.67 in 6.0 mi SSW 13.8 mph 21.9 mph 0.12 in Rain Rain
3:53 AM 55.9 °F - 53.1 °F 90% 29.64 in 8.0 mi SSW 9.2 mph - 0.10 in Rain Light Rain
4:11 AM 55.9 °F - 53.1 °F 90% 29.64 in 9.0 mi South 10.4 mph - 0.01 in Rain Light Rain
4:45 AM 53.1 °F - 51.1 °F 93% 29.67 in 3.0 mi WNW 24.2 mph 35.7 mph 0.12 in Rain Rain
4:49 AM 51.8 °F - 48.2 °F 88% 29.68 in 4.0 mi West 18.4 mph 35.7 mph 0.13 in Rain Rain
4:53 AM 51.1 °F - 48.0 °F 89% 29.67 in 5.0 mi West 15.0 mph 31.1 mph 0.14 in Rain Light Rain
5:14 AM 48.9 °F - 46.9 °F 93% 29.67 in 6.0 mi West 8.1 mph - 0.03 in Rain Rain
5:28 AM 48.9 °F - 46.9 °F 93% 29.68 in 4.0 mi West 10.4 mph - 0.06 in Rain Rain
5:46 AM 48.9 °F - 46.9 °F 93% 29.71 in 4.0 mi West 10.4 mph 18.4 mph 0.11 in Rain Rain
5:53 AM 48.9 °F - 46.9 °F 93% 29.70 in 3.0 mi West 10.4 mph - 0.13 in Rain Rain
6:53 AM 39.9 °F 30.5 °F 37.0 °F 89% 29.79 in 4.0 mi WNW 19.6 mph 32.2 mph 0.21 in Rain Rain
7:46 AM 37.0 °F 30.4 °F 35.1 °F 93% 29.84 in 7.0 mi West 9.2 mph 23.0 mph 0.03 in Rain Light Rain
7:53 AM 37.0 °F 30.4 °F 35.1 °F 93% 29.85 in 6.0 mi West 9.2 mph - 0.03 in Rain Light Rain
8:53 AM 37.9 °F 32.1 °F 35.1 °F 89% 29.86 in 10.0 mi South 8.1 mph - 0.00 in   Overcast
9:00 AM 37.9 °F 32.1 °F 35.1 °F 89% 29.86 in 10.0 mi SSW 8.1 mph - N/A   Overcast
9:53 AM 39.9 °F 32.5 °F 35.1 °F 83% 29.87 in 10.0 mi SSW 12.7 mph 20.7 mph N/A   Overcast
10:53 AM 43.0 °F 35.4 °F 34.0 °F 71% 29.87 in 10.0 mi SSW 16.1 mph 23.0 mph N/A   Partly Cloudy
11:53 AM 44.1 °F 35.7 °F 33.1 °F 65% 29.86 in 10.0 mi WSW 20.7 mph 29.9 mph N/A   Overcast
12:53 PM 46.9 °F - 30.9 °F 54% 29.83 in 10.0 mi WSW 16.1 mph 29.9 mph N/A   Mostly Cloudy
1:53 PM 48.0 °F - 30.0 °F 50% 29.83 in 10.0 mi WSW 13.8 mph 29.9 mph N/A   Scattered Clouds
2:53 PM 50.0 °F - 25.0 °F 38% 29.84 in 10.0 mi WSW 18.4 mph 34.5 mph N/A   Mostly Cloudy
3:53 PM 50.0 °F - 23.0 °F 35% 29.86 in 10.0 mi WSW 17.3 mph 35.7 mph N/A   Partly Cloudy
4:53 PM 48.9 °F - 21.9 °F 35% 29.90 in 10.0 mi West 12.7 mph 23.0 mph N/A   Clear
5:53 PM 46.9 °F - 21.9 °F 37% 29.93 in 10.0 mi WSW 10.4 mph 23.0 mph N/A   Clear
6:53 PM 46.0 °F 40.2 °F 21.9 °F 39% 29.96 in 10.0 mi WSW 12.7 mph 18.4 mph N/A   Clear
7:53 PM 45.0 °F 39.7 °F 21.0 °F 39% 29.99 in 10.0 mi SW 10.4 mph - N/A   Clear
8:53 PM 44.1 °F 40.1 °F 19.9 °F 38% 30.01 in 10.0 mi WSW 6.9 mph 16.1 mph N/A   Clear
9:53 PM 42.1 °F 37.7 °F 19.0 °F 40% 30.04 in 10.0 mi West 6.9 mph - N/A   Clear
10:53 PM 39.9 °F 36.7 °F 19.0 °F 43% 30.04 in 10.0 mi SSW 4.6 mph - N/A   Clear
11:53 PM 37.0 °F 32.4 °F 18.0 °F 46% 30.06 in 10.0 mi SSW 5.8 mph - N/A   Clear